K0WU2AZO Weather Reports


Display with metric or nautical units.
time (UTC)temp
F
wind
direction
speed
MPH
gust
MPH
rain 1hr
in
rain 24hr
in
rain mn
in
humidity
%
barometer
mb
20260507145931 61 245 2.0 6.0 0.01 0.28 0.18 59 1006.7
20260507144430 60 193 1.0 5.0 0.01 0.28 0.18 64 1006.9
20260507142931 60 199 2.0 10.0 0.01 0.28 0.18 65 1007.3
20260507141430 60 262 2.0 8.0 0.01 0.28 0.18 62 1007.2
20260507135930 60 249 2.0 5.0 0.00 0.27 0.17 65 1007.3
20260507134430 59 72 0.0 3.0 0.00 0.27 0.17 71 1007.3
20260507132929 57 225 1.0 5.0 0.00 0.27 0.17 75 1007.5
20260507131431 55 248 0.0 5.0 0.00 0.27 0.17 81 1007.5
20260507125931 54 266 0.0 4.0 0.00 0.27 0.17 84 1007.6
20260507124433 52 273 1.0 6.0 0.00 0.27 0.17 88 1007.7
20260507122932 51 82 0.0 2.0 0.00 0.27 0.17 92 1007.9
20260507121429 49 190 0.0 5.0 0.00 0.27 0.17 92 1007.8
20260507115931 49 186 0.0 0.0 0.00 0.27 0.17 93 1007.7
20260507114432 49 123 0.0 0.0 0.00 0.27 0.17 93 1007.6
20260507112930 48 123 0.0 0.0 0.00 0.27 0.17 92 1007.6
20260507111431 48 123 0.0 0.0 0.00 0.27 0.17 92 1007.4
20260507105931 48 123 0.0 0.0 0.00 0.27 0.17 92 1007.4
20260507104433 48 123 0.0 0.0 0.01 0.27 0.17 92 1007.1
20260507102932 47 123 0.0 0.0 0.03 0.27 0.17 92 1007.6
20260507101433 47 123 0.0 0.0 0.05 0.27 0.17 92 1007.1
20260507095932 47 123 0.0 1.0 0.08 0.27 0.17 92 1007.2
20260507094433 47 123 0.0 1.0 0.10 0.26 0.16 91 1007.0
20260507092930 48 136 0.0 1.0 0.10 0.24 0.14 91 1006.9
20260507091432 48 331 0.0 2.0 0.08 0.22 0.12 91 1006.8
20260507085934 48 138 0.0 1.0 0.07 0.19 0.09 90 1007.0
20260507084430 48 139 0.0 1.0 0.05 0.16 0.06 90 1007.2
20260507082934 49 263 0.0 2.0 0.04 0.14 0.04 90 1007.1
20260507081433 50 237 0.0 1.0 0.04 0.14 0.04 88 1006.7
20260507075932 50 237 0.0 4.0 0.02 0.12 0.02 87 1007.0
20260507074432 52 153 0.0 6.0 0.01 0.11 0.01 86 1006.6
20260507072932 53 246 1.0 4.0 0.00 0.10 0.00 85 1006.5
20260507071432 53 181 0.0 4.0 0.00 0.10 0.00 85 1005.8
20260507065932 54 131 0.0 1.0 0.00 0.10 0.00 87 1005.6
20260507064432 54 150 0.0 3.0 0.00 0.10 0.00 86 1005.5
20260507062931 55 257 0.0 5.0 0.00 0.10 0.00 86 1006.0
20260507061432 55 245 1.0 2.0 0.00 0.10 0.00 86 1005.7
20260507055932 55 71 0.0 2.0 0.00 0.10 0.00 86 1005.9
20260507054432 56 260 0.0 6.0 0.00 0.10 0.00 85 1006.0
20260507052931 57 258 2.0 10.0 0.00 0.10 0.00 88 1006.3
20260507051431 57 240 0.0 9.0 0.00 0.10 0.00 89 1006.1
20260507045931 58 262 0.0 2.0 0.00 0.10 0.00 90 1005.9
20260507044431 58 163 1.0 6.0 0.00 0.10 0.00 90 1006.0
20260507042932 58 251 0.0 4.0 0.00 0.10 0.00 91 1005.9
20260507041432 58 269 0.0 4.0 0.00 0.10 0.00 91 1005.8
20260507035931 59 218 1.0 3.0 0.00 0.10 0.00 92 1005.8
20260507034431 59 236 0.0 2.0 0.00 0.10 0.10 92 1006.0
20260507032931 58 252 0.0 2.0 0.00 0.10 0.10 92 1005.8
20260507031432 58 210 1.0 2.0 0.00 0.10 0.10 92 1005.7
20260507025932 58 240 0.0 2.0 0.00 0.10 0.10 92 1005.6
20260507024432 58 244 0.0 2.0 0.00 0.10 0.10 92 1005.5
20260507022931 58 247 0.0 3.0 0.00 0.10 0.10 92 1005.6
20260507021433 58 246 0.0 2.0 0.00 0.10 0.10 92 1005.4
20260507015933 58 234 1.0 3.0 0.00 0.10 0.10 92 1005.7
20260507014432 58 240 0.0 2.0 0.00 0.10 0.10 92 1005.5
20260507012932 58 250 0.0 2.0 0.00 0.10 0.10 92 1005.7
20260507011432 58 242 1.0 2.0 0.00 0.10 0.10 92 1005.9
20260507005932 57 236 0.0 2.0 0.00 0.10 0.10 92 1005.9
20260507004431 57 219 0.0 2.0 0.00 0.10 0.10 92 1005.9
20260507002931 57 220 0.0 3.0 0.01 0.10 0.10 92 1005.9
20260507001434 57 243 1.0 4.0 0.02 0.10 0.10 92 1005.7
20260506235932 57 136 0.0 3.0 0.03 0.10 0.10 92 1005.6
20260506234431 58 157 0.0 2.0 0.03 0.10 0.10 91 1005.5
20260506232932 58 148 1.0 3.0 0.02 0.09 0.09 91 1005.4
20260506231431 58 148 0.0 3.0 0.01 0.08 0.08 91 1005.4
20260506225933 58 153 0.0 3.0 0.00 0.07 0.07 91 1005.5
20260506224431 59 143 1.0 3.0 0.00 0.07 0.07 91 1005.5
20260506222931 59 133 1.0 2.0 0.01 0.07 0.07 91 1005.5
20260506221431 59 157 1.0 4.0 0.02 0.07 0.07 91 1005.8
20260506215932 59 175 1.0 3.0 0.03 0.07 0.07 91 1005.7
20260506214431 59 217 0.0 3.0 0.03 0.07 0.07 90 1005.8
20260506212932 60 210 1.0 3.0 0.02 0.06 0.06 90 1006.1
20260506211431 60 254 1.0 7.0 0.02 0.05 0.05 89 1006.1
20260506205934 60 123 0.0 5.0 0.01 0.04 0.04 89 1006.2
20260506204432 60 231 1.0 3.0 0.02 0.04 0.04 89 1006.5
20260506202932 61 207 0.0 5.0 0.03 0.04 0.04 88 1006.8
20260506201434 61 158 1.0 4.0 0.03 0.03 0.03 87 1006.7
20260506195932 62 248 1.0 4.0 0.03 0.03 0.03 86 1006.6
20260506194434 63 98 0.0 3.0 0.02 0.02 0.02 86 1006.4
20260506192931 64 257 0.0 4.0 0.01 0.01 0.01 83 1006.8
20260506191433 65 207 1.0 3.0 0.00 0.00 0.00 80 1006.9
20260506185931 67 172 1.0 3.0 0.00 0.00 0.00 75 1006.8
20260506184434 68 223 3.0 6.0 0.00 0.00 0.00 69 1006.6
20260506182933 70 243 1.0 2.0 0.00 0.00 0.00 67 1006.9
20260506181435 70 148 1.0 5.0 0.00 0.00 0.00 65 1006.9
20260506175931 71 243 2.0 8.0 0.00 0.00 0.00 63 1007.1
20260506174434 72 226 3.0 9.0 0.00 0.00 0.00 60 1007.0
20260506172934 73 259 1.0 6.0 0.00 0.00 0.00 61 1007.2
20260506171433 73 236 4.0 8.0 0.00 0.00 0.00 59 1007.3
20260506165934 73 269 3.0 8.0 0.00 0.00 0.00 61 1007.3
20260506164433 72 116 3.0 9.0 0.00 0.00 0.00 61 1007.6
20260506162935 72 119 0.0 8.0 0.00 0.00 0.00 63 1007.7
20260506161433 72 184 1.0 5.0 0.00 0.00 0.00 65 1007.9
20260506155934 72 148 0.0 3.0 0.00 0.00 0.00 65 1008.2
20260506154433 71 131 2.0 6.0 0.00 0.00 0.00 64 1008.4
20260506152934 72 124 1.0 5.0 0.00 0.00 0.00 63 1008.7
20260506151432 72 239 1.0 9.0 0.00 0.00 0.00 64 1008.8